DELTA 1 DEB, 10844

Orbit data source: Space-Track

DELTA 1 DEB, 10844 is space debris in SSO originally from a launch on Thu, 29 Jul 1976 UTC launched from the Air Force Western Test Range (AFWTR). Debris objects in space refer to the collection of defunct objects orbiting the Earth. Examples of debris include non-operational satellites, rocket bodies, and fragments generated from explosions, collisions, or faulty payload assembly.

Loading next visibility...
Identifier
10844, 1976-077CQ
Orbit
SSO
Country
Flag of USUS
Related business
Manufacturer
Unknown
Mission
Spacecraft
Bus & Motor
Unknown
Mass
Unknown
Launch date (UTC)
1976-07-29 (50 years ago)
Launch vehicle
Unknown
Launch site
Air Force Western Test Range (AFWTR)
Object type
Payload
Rocket body
Debris
Shape & HBR
Unknown shape, 0.1 m
Radar Cross Section
Small (<0.1 m²)

Expand to show TLE details & history
Last TLE update: 19 hours ago

TLE from 19 hours ago
0 DELTA 1 DEB
1 10844U 76077CQ  26104.07254677  .00003771  00000-0  36686-2 0  9994
2 10844 101.2114 144.0295 0115900  35.8839 351.8191 13.77332784402128
Epoch: 2026-04-14T01:44Z
TLE epoch observation values (Epoch: 2026-04-14T01:44:28.040Z)
Latitude
26.98347°
Longitude
-90.10305°
Altitude
892.185 km
Speed
7.451 km/s
True Right ascension
09h 13m 04s
True Declination
26° 50' 50"
Sunlit
Object was in daylight at epoch
Visualization orbit readout
Latitude
Unknown
Longitude
Unknown
Altitude
Unknown
Speed
Unknown
Apparent Right ascension
Unknown
Apparent Declination
Unknown
Sunlit
N/A
Visualization observer readout
Local Sidereal Time
03:35:25
Azimuth
Unknown
Elevation
Unknown
Doppler factor
Unknown
Orbital elements
Apogee altitude
1,055.884 km
Perigee altitude
885.538 km
Semi-major axis
7,348.848 km
Eccentricity
0.01159
Inclination
101.2114°
RAAN
144.0295°
Arg. of periapsis
35.8839°
True anomaly
351.62736°
Mean anomaly
351.8191°
Eccentric anomaly
351.72351°
Mean motion
3.4452 °/min
Orbital period
104.49 mins
BSTAR
0.0036686
Loading maneuver chart data...
Computing Atmospheric mass density...
Loading historical data...
Loading historical data...
Loading historical data...
Loading historical data...
Loading historical data...
Loading historical data...
Loading historical data...

Documentation

Showing up to 5 results
|